sat.trackr.live / text

‹ back to catalog

COSMOS 2584 (704K)

NORAD 63130 · 2025-042A

PAYLOAD INACTIVE UNKNOWN

§ Identity

Operator
Country
CIS
Launch date
2025-03-02
Launch site
PLMSC
Launch vehicle
Mass (kg)
RCS (m²)

Purposes: nav

External: N2YO · Heavens-Above · Gunter

§ Orbital elements

Epoch: 2026-09-19T11:03:48.165696Z

Period
675.73 min
Inclination
65.1442°
Eccentricity
0.0006647
Mean motion
2.13103522 rev/d
Perigee alt
19,112.8 km
Apogee alt
19,146.7 km
Semi-major
25,507.9 km
B*
0.0000e+0
RAAN
69.6002°
Arg perigee
202.9598°
Mean anomaly
157.0425°
Rev number
1,205

§ Raw data

COSMOS 2584 (704K)1 63130U 25042A   26262.46097414  .00000029  00000+0  00000+0 0  99982 63130  65.1442  69.6002 0006647 202.9598 157.0425  2.13103522 12059

JSON: /api/v1/satellites/63130 · /tle

For live sub-satellite position, see the globe view (requires WebGL).

§ Visibility from observer

Set your observer location to see the next 7 days of passes ≥ 10°. The values pass through the URL so the page stays shareable.

No JS? Fill the form by hand. The geolocation button needs JavaScript.